Regional Weather Roundup
Issued by NWS Upton, NY

Current Version | Previous Version | Text Only | Print | Product List | Glossary On
Versions: 1 2 3 4 5 6 7 8 9 10 11 12 13 14 15 16 17 18 19 20 21 22 23 24 25 26 27 28 29 30 31 32 33 34 35 36 37 38 39 40 41 42 43 44 45 46 47 48 49 50
000 ASUS41 KOKX 260904 RWROKX REGIONAL WEATHER ROUNDUP NATIONAL WEATHER SERVICE NEW YORK NY 500 AM EDT MON SEP 26 2016 NOTE: "FAIR" INDICATES FEW OR NO CLOUDS BELOW 12,000 FEET WITH NO SIGNIFICANT WEATHER AND/OR OBSTRUCTIONS TO VISIBILITY. NYZ071-072-176-178-NJZ106-104-261000- NEW YORK CITY METRO AREA CITY SKY/WX TMP DP RH WIND PRES REMARKS Central Park CLEAR 56 43 61 E3 30.20F LaGuardia APRT CLEAR 60 43 53 NE5 30.17F Kennedy INTL PTCLDY 52 43 71 NE7 30.18F Newark/Liberty PTCLDY 52 44 74 N8 30.18S Bronx Bot Gard N/A 54 37 54 NW1 30.20S Wall St Helipt SUNNY 63 48 59 NE9 30.18S Teterboro CLEAR 50 44 80 N5 30.17F $$ NYZ177-179-078>081-261000- LONG ISLAND NEW YORK CITY SKY/WX TMP DP RH WIND PRES REMARKS Farmingdale CLEAR 50 42 74 NE6 30.18F MacArthur/ISP CLEAR 51 39 63 NE7 30.18S Shirley CLEAR 44 41 89 CALM 30.19S Riverhead NOT AVBL Westhampton CLEAR 45 38 76 E6 30.21R Southampton N/A 52 43 71 NE1 30.16S Bridgehampton N/A 48 43 81 CALM 30.04S East Hampton FAIR 42 40 95 CALM 30.18S Montauk N/A 56 42 59 NE6 30.20S $$ NYZ052-065-067-261000- HUDSON VALLEY CITY SKY/WX TMP DP RH WIND PRES REMARKS White Plains CLEAR 50 37 61 NE3 30.18S Newburgh CLEAR 43 41 93 CALM 30.21S Montgomery PTCLDY 38 36 92 CALM 30.20S Poughkeepsie CLEAR 36 35 96 CALM 30.20S Albany PTCLDY 40 37 89 CALM 30.20S $$ NJZ001-105-106-008-010-013-015-019>022-104-261000- NEW JERSEY CITY SKY/WX TMP DP RH WIND PRES REMARKS Newark/Liberty PTCLDY 52 44 74 N8 30.18S Teterboro CLEAR 50 44 80 N5 30.17F Caldwell CLEAR 47 43 86 CALM 30.19S Morristown CLEAR 39 37 93 CALM 30.18S FOG Somerville CLEAR 42 39 89 NW5 30.17R Linden NOT AVBL Sussex CLEAR 37 37 100 CALM 30.20R Abdover N/A 44 42 93 CALM 30.19S Trenton CLEAR 48 44 86 CALM 30.17R Millville PTCLDY 47 47 100 CALM 30.17S Atlantic City CLEAR 49 46 90 CALM 30.17S Wrightstown CLEAR 45 43 93 CALM 30.15R Toms River PTCLDY 41 38 89 CALM 30.18S Belmar CLEAR 51 47 86 CALM 30.18S $$ PAZ047>061-062-071-261000- EASTERN PENNSYLVANIA CITY SKY/WX TMP DP RH WIND PRES REMARKS Philadelphia PTCLDY 54 49 83 CALM 30.17S Allentown CLEAR 43 39 86 CALM 30.17S Scranton CLEAR 47 38 71 NE7 30.15F $$ CTZ002-004>006-009-010-012-RIZ004-006-007-MAZ004-011-015-261000- SOUTHERN NEW ENGLAND IN CT CITY SKY/WX TMP DP RH WIND PRES REMARKS Bradley INTL CLEAR 39 36 89 CALM 30.21S Hartford CLEAR 41 40 96 CALM 30.20F Danbury CLEAR 37 35 92 SW3 30.21S Wtrbury/Oxford N/A 46 36 66 CALM 30.20S Bridgeport CLEAR 51 39 63 NE6 30.20S Meriden CLEAR 42 38 85 CALM 30.20F New Haven CLEAR 44 39 82 CALM 30.20S Chester FAIR 45 39 81 N3 30.19S Groton CLEAR 47 40 76 N7 30.19S Wilimantic MOCLDY 38 37 97 NW3 30.21F IN RI CITY SKY/WX TMP DP RH WIND PRES REMARKS Providence CLEAR 44 38 79 W3 30.20S Block Island CLEAR 52 43 71 N5 30.19S Westerly CLEAR 41 36 82 NE3 30.19F IN MA CITY SKY/WX TMP DP RH WIND PRES REMARKS Boston CLEAR 49 39 68 W8 30.19S Worcester CLEAR 42 34 73 NW5 30.19S Westfield CLEAR 36 35 96 CALM 30.21S Provincetown CLEAR 54 39 57 N6 30.18S Nantucket CLEAR 50 41 71 N3 30.16S $$ ANZ330-335-338-340-345-350-353-355-261000- COASTAL MARINE OBSERVATIONS STATION/POSITION TIME SKY/WX TEMP WIND PRES VSBY WAVE AIR SEA DIR/SP/G HT/PER (UTC) (F) (DEG/KT/KT) (MB) (MI) (FT/S) NY HARB ENTRANCE 0750 65 71 80/ 6/ 10 1021.5 2/ 9 20S FIRE ISLAND 0750 64 69 70/ 8/ 10 1021.3 2/ 9 GREAT SOUTH BAY 0830 57 69 40/ 10/ 14 N/A 23 SSW MONTAUK P 0750 62 68 60/ 10/ 12 1022.1 2/10 15 E BARNEGAT LI 0830 70 N/A 2/11 HUDSON CANYON 0750 65 69 1021.2 2/ 9 KINGS POINT 0830 56 72 1021.8 EXECUTION ROCKS 0845 61 40/ 12/ 17 N/A CENTRAL LI SOUND 0815 59 72 70/ 14/ 16 N/A 2/ 3 EASTERN LI SOUND NOT AVBL ROBBINS REEF 0830 60 10/ 3/ 5 1021.9 $$ >>>>>>>>>>>>>>>>>>>>>>>>>>>> KEY <<<<<<<<<<<<<<<<<<<<<<<<<<< > < > SKY/WX - Sky Condition/Present Weather < > TMP - Temperature in Fahrenheit < > DP - Dew Point in Fahrenheit < > RH - Relative Humidity in Percent < > WIND - Direction (from) and Speed in MPH < > PRES - Mean Sea Level Pressure (inches of Hg) < > WCI - Wind Chill Index < > VSB - VISIBILITY IN MILES < > HX - HEAT INDEX < > TC - TEMPERATURE IN CELSIUS < > VRB - VARIABLE WIND DIRECTION < > < >>>>>>>>>>>>>>>>>>>>>>>>>>>> KEY <<<<<<<<<<<<<<<<<<<<<<<<<<<

USA.gov is the U.S. government's official web portal to all federal, state and local government web resources and services.